Location: *
(44.6853°N, 6.3258°E)
Time: 02:08:25
(UTC+00:00)

Daily predictions for brighter satellites

Satellite Brightness Start Highest point End
(mag) Time Altitude Azimuth Time Altitude Azimuth Time Altitude Azimuth
Unknown 4.1 00:05:21 57° NE 00:05:21 57° NE 00:08:45 10° NE
Unknown 4.1 00:06:57 59° NE 00:06:57 59° NE 00:10:25 10° NE
NOSS 2-2 (E) 3.8 00:07:35 55° NNW 00:07:35 55° NNW 00:11:32 10° NNE
Unknown 4.0 00:08:32 61° NNE 00:08:32 61° NNE 00:12:04 10° NE
Unknown 4.0 00:10:07 62° NNE 00:10:07 62° NNE 00:13:43 10° NE
H-2A R/B 4.2 00:08:37 17° E 00:10:35 22° ENE 00:14:04 10° NNE
Cosmos 1745 Rocket 4.4 00:08:06 10° NNW 00:14:04 48° W 00:15:12 43° WSW
Unknown 3.9 00:16:31 64° N 00:16:31 64° N 00:20:23 10° NE
RESURS DK-1 4.3 00:17:15 19° E 00:17:15 19° E 00:19:41 10° ENE
Unknown 3.9 00:18:06 64° N 00:18:06 64° N 00:22:02 10° NE
CZ-4B R/B 3.6 00:13:57 10° NNE 00:18:50 56° E 00:19:08 55° ESE
Unknown 3.9 00:19:43 63° NNW 00:19:43 63° NNW 00:23:43 10° NE
USA 238 DEB 4.1 00:13:03 10° NW 00:19:56 49° WSW 00:21:02 46° SW
USA 238 4.0 00:13:09 10° NW 00:20:02 49° WSW 00:21:09 46° SW
ATLAS 2AS CENTAUR R/B 3.1 00:17:20 36° SW 00:21:04 77° NW 00:29:11 10° NE
Unknown 4.0 00:21:19 62° NNW 00:21:19 62° NNW 00:25:23 10° NE
Cosmos 2369 Rocket 2.3 00:15:53 10° NW 00:21:27 54° WSW 00:21:44 53° WSW
Unknown 4.0 00:22:52 61° NNW 00:22:52 61° NNW 00:26:59 10° NE
SL-16 R/B 3.7 00:19:40 17° ESE 00:23:52 37° ENE 00:29:26 10° N
NOSS 2-2 (D) 4.0 00:24:40 48° NW 00:24:40 48° NW 00:28:44 10° NNE
Unknown 4.0 00:24:36 59° NW 00:24:43 59° NNW 00:28:51 10° NE
Cosmos 1782 Rocket 4.0 00:25:59 53° E 00:26:04 53° E 00:30:26 10° NNE
Unknown 4.0 00:26:07 58° NW 00:26:16 58° NNW 00:30:22 10° NE
Unknown 4.4 00:26:32 42° NW 00:26:50 43° NNW 00:30:31 10° NE
Starlink (trailer) 4.1 00:27:41 56° NW 00:27:54 57° NNW 00:32:00 10° NE
CZ-4C R/B 3.7 00:29:28 63° WNW 00:29:28 63° WNW 00:33:36 10° NNW
Unknown 4.1 00:29:17 54° NW 00:29:35 55° NNW 00:33:40 10° NE
Unknown 4.4 00:29:45 42° NW 00:30:11 44° NNW 00:33:57 10° NE
Unknown 4.1 00:30:51 52° NW 00:31:13 54° NNW 00:35:18 10° NE
Cosmos 1777 Rocket 4.0 00:31:10 62° SE 00:31:44 67° ESE 00:36:57 10° NNE
Unknown 4.2 00:31:56 51° NW 00:32:17 53° NNW 00:36:19 10° NE
Meteor 1-5 Rocket 4.5 00:33:18 52° SW 00:34:37 66° WNW 00:40:35 10° N
Meteor 1-11 Rocket 3.8 00:33:53 56° SW 00:34:56 69° WNW 00:40:42 10° N
Unknown 4.3 00:37:13 45° WNW 00:37:53 50° NNW 00:41:56 10° NE
Cosmos 2315 Rocket 4.1 00:36:24 50° SW 00:38:03 69° W 00:44:27 10° N
Cosmos 1603 4.5 00:36:51 33° W 00:38:41 43° WNW 00:44:04 10° NNE
Unknown 4.4 00:38:50 43° WNW 00:39:35 49° NNW 00:43:38 10° NE
Cosmos 1500 4.0 00:41:42 44° NW 00:41:42 44° NW 00:44:53 10° N
Unknown 4.4 00:40:26 41° WNW 00:41:16 48° NNW 00:45:18 10° NE
Unknown 4.5 00:42:00 40° WNW 00:42:54 47° NNW 00:46:56 10° NE
Meteor 2-8 Rocket 4.4 00:42:52 52° S 00:44:31 84° E 00:50:40 10° N
PSLV R/B 4.1 00:42:53 10° N 00:46:55 45° WNW 00:46:59 45° WNW
Cosmos 1656 Rocket 3.6 00:47:37 10° NNW 00:53:18 73° WSW 00:54:32 54° S
Cosmos 1346 Rocket 3.3 00:54:41 51° E 00:54:46 51° E 00:58:38 10° NNE
SeaSat 1 4.5 00:55:05 10° N 00:58:40 20° NW 01:01:26 13° W
Cosmos 1975 Rocket 2.9 00:55:00 10° NNW 00:59:20 75° W 00:59:24 74° WSW
ADEOS II 4.4 00:56:42 10° NE 00:59:42 15° E 01:02:40 10° SE
Resurs 1-4 Rocket 2.7 00:56:17 10° NNE 01:01:24 48° E 01:03:02 36° SE
NPP 4.2 00:56:39 10° NNE 01:01:52 48° E 01:03:37 35° SSE
Cosmos 1536 3.9 01:02:17 34° WNW 01:02:17 34° WNW 01:05:51 10° N
Cosmos 773 Rocket 4.2 00:57:39 10° NNW 01:02:43 51° WSW 01:03:03 50° WSW
Cosmos 1943 4.1 01:02:56 28° W 01:05:03 38° NW 01:10:21 10° NNE
NOSS 3-2 (C) 4.3 00:58:57 10° NW 01:06:14 48° WSW 01:08:49 37° SSW
Sich 1 Rocket 3.6 01:06:25 62° WSW 01:06:54 67° W 01:11:29 10° N
Cosmos 2184 Rocket 3.9 01:04:06 10° N 01:10:25 83° W 01:12:48 41° S
UNK 3.8 01:09:55 45° SE 01:11:15 72° ENE 01:15:50 10° N
SJ 16-02 3.5 01:12:33 15° ESE 01:14:13 18° E 01:17:09 10° NE
SAR-Lupe-4 3.7 01:16:09 63° NW 01:16:09 63° NW 01:19:21 10° NNW
SL-4 R/B 2.1 01:13:06 10° WNW 01:17:49 79° SSW 01:21:03 18° SE
Cosmos 1943 Rocket 3.9 01:17:45 10° WNW 01:20:20 16° W 01:20:20 16° W
ATLAS 5 CENTAUR R/B 4.5 01:21:11 10° W 01:21:58 11° W 01:21:58 11° W
CZ-4B R/B 4.1 01:23:09 10° E 01:24:54 14° ENE 01:26:39 10° NNE
NOSS 3-4 (A) 4.1 01:22:55 26° WSW 01:26:09 49° NW 01:32:24 10° NNE
NOSS 3-4 (C) 4.1 01:23:02 26° WSW 01:26:14 49° NW 01:32:29 10° NNE
Cosmos 1066 Rocket 4.5 01:23:03 10° NNW 01:28:35 51° W 01:30:03 40° SW
BREEZE-M DEB (TANK) 4.3 01:26:28 10° WNW 01:30:12 30° W 01:30:12 30° W
Cosmos 1743 2.8 01:34:43 57° WSW 01:34:59 59° W 01:38:50 10° N
CENTAUR R/B 3.4 01:28:43 10° NW 01:36:24 47° WSW 01:40:52 27° S
ARIANE 5 R/B 3.7 01:32:22 10° NNE 01:37:05 35° E 01:40:14 19° SSE
Cosmos 2074 Rocket 4.3 01:32:07 10° NNW 01:38:08 50° W 01:40:27 34° SW
CBERS-1 4.0 01:35:19 10° NNE 01:40:29 78° ESE 01:42:37 36° S
CZ-2D R/B 2.1 01:36:03 10° NNE 01:41:32 80° WNW 01:43:49 37° SSW
Cosmos 923 Rocket 4.0 01:36:44 10° NNW 01:42:02 64° WSW 01:44:11 35° S
Cosmos 1666 4.1 01:43:07 24° WNW 01:43:19 25° WNW 01:46:32 10° NNW
Cosmos 2084 3.6 01:40:03 10° NW 01:44:16 67° NE 01:48:20 10° SE
ATLAS 3B R/B 3.4 01:39:21 10° NW 01:45:03 31° WSW 01:45:58 30° SW
Okean 2 Rocket 3.5 01:44:08 40° WSW 01:45:03 47° WNW 01:49:20 10° N
H-2A R/B 2.6 01:45:43 40° WSW 01:46:18 42° W 01:50:37 10° NNW
Cosmos 1536 Rocket 3.5 01:43:06 10° NNW 01:47:36 77° W 01:49:09 40° S
Meteor 2-9 Rocket 4.3 01:44:56 30° S 01:47:44 72° E 01:53:22 10° NNE
Cosmos 1975 3.1 01:48:03 47° WSW 01:48:50 56° W 01:52:52 10° N
Cosmos 2082 Rocket 4.5 01:46:23 10° SE 01:49:31 15° E 01:52:39 10° ENE
RESURS DK-1 3.2 01:53:09 32° W 01:54:21 40° WNW 01:58:19 10° NNE
Nadezhda 1 Rocket 4.2 01:52:01 31° SW 01:55:02 58° WNW 02:01:19 10° N
Genesis I 4.3 01:55:09 28° W 01:56:34 38° NW 02:00:25 10° NNE
Cosmos 405 3.7 01:53:36 10° N 01:57:05 52° ENE 01:59:05 22° SE
Cosmos 1340 3.6 01:57:12 31° W 01:57:41 32° WNW 02:01:07 10° N
Okean 2 4.3 01:54:03 10° NNW 01:57:47 32° W 01:58:09 31° WSW
AQUA 3.9 01:53:48 10° N 01:58:32 64° WNW 02:00:28 35° SW
MOZ.5/SAFIR/RUBIN 5/SL-8 4.3 01:57:55 35° SW 01:58:59 40° W 02:03:28 10° NNW
Cosmos 1689 Rocket 4.4 01:58:31 10° SE 02:00:58 24° ENE 02:03:26 10° NNE
Landsat 5 3.5 01:59:08 26° SSE 02:01:37 87° WSW 02:05:55 10° NNW
Cosmos 1300 Rocket 4.0 02:01:36 36° SW 02:02:58 49° WNW 02:07:18 10° N
Cosmos 1842 3.2 01:59:23 10° NNW 02:03:14 65° W 02:04:23 41° SSW
Cosmos 1937 Rocket 3.7 02:01:36 26° S 02:04:30 64° ESE 02:09:43 10° NNE
Meteor 1-12 Rocket 4.4 02:01:44 25° S 02:05:23 88° E 02:11:28 10° N
Cosmos 1680 Rocket 3.7 02:00:39 10° NNW 02:05:47 52° WSW 02:08:25 27° SSW
CZ-4C R/B 3.2 02:06:32 44° SW 02:07:10 51° W 02:10:43 10° NNW
SL-16 R/B 3.0 02:04:46 28° SW 02:07:23 40° W 02:13:11 10° NNW
Spot 4 Rocket 4.5 02:03:52 10° NNE 02:08:58 57° E 02:12:40 18° S
Iridium 51 4.4 02:08:01 32° SSW 02:09:57 78° W 02:13:58 10° N
Atlas Centaur 2 3.8 02:08:24 23° SSW 02:10:09 25° S 02:15:35 10° SE
Meteor 1-21 4.3 02:06:54 10° NNW 02:12:38 64° W 02:16:30 21° S
Cosmos 1898 Rocket 3.5 02:10:31 28° SSW 02:13:21 80° WNW 02:18:42 10° NNE
Cosmos 2366 rocket 4.4 02:07:28 10° N 02:13:36 63° E 02:19:41 10° SSE
Cosmos 1025 Rocket 3.4 02:11:17 10° NNW 02:15:32 48° W 02:17:19 30° SSW
SL-08 R/B 3.4 02:17:23 25° SSW 02:19:58 54° W 02:24:41 10° NNW
Milstar 3 3.9 02:19:34 20° SSW 02:20:53 21° S 02:26:04 10° SE
IRS-1C 4.2 02:19:07 10° N 02:24:25 64° WNW 02:27:46 23° SSW
Cosmos 2341 Rocket 4.1 02:20:12 10° NNW 02:26:28 60° W 02:31:35 16° SSW
Cosmos 44 3.4 02:25:05 10° NNW 02:29:41 69° NE 02:34:02 10° SE
IRS-1D 3.9 02:25:03 10° N 02:29:46 46° WNW 02:32:38 22° SW
Okean 1 Rocket 3.3 02:29:15 25° SSW 02:31:42 56° WNW 02:36:07 10° N
Cosmos 2218 Rocket 4.0 02:25:38 10° N 02:31:52 89° WSW 02:38:09 10° S
CZ-2C R/B 3.3 02:28:16 10° NNE 02:31:58 53° E 02:35:00 15° S
Cosmos 1441 Rocket 4.0 02:35:12 12° S 02:38:40 49° E 02:42:28 10° NNE
GPS 2-04 Rocket1 4.3 02:39:07 15° S 02:39:27 15° SSE 02:41:36 10° SE
COSMOS 2406 3.3 02:35:45 21° SW 02:39:38 66° WNW 02:45:19 10° NNE
ADEOS II 2.1 02:34:41 10° N 02:39:57 74° WNW 02:44:04 17° SSW
Aureole 2 Rocket 3.3 02:37:47 10° NW 02:40:21 24° WSW 02:40:23 24° WSW
TSX-5 3.1 02:37:29 10° NNW 02:40:38 78° WSW 02:43:56 10° SSE
Resurs 1-4 Rocket 3.5 02:36:41 10° N 02:40:56 25° WNW 02:44:07 15° WSW
Aureole 3 2.8 02:43:36 21° SSW 02:45:36 79° W 02:49:14 10° N
Cosmos 1697 Rocket 3.1 02:44:35 10° NNW 02:50:16 69° ENE 02:55:54 10° SE
Cosmos 1833 Rocket 2.9 02:47:10 13° SSW 02:52:16 70° ESE 02:57:54 10° NNE
SJ 16-02 1.8 02:49:33 19° SW 02:52:26 45° WNW 02:56:40 10° N
Okean 1-7 Rocket 3.6 02:49:31 10° N 02:54:04 79° W 02:58:33 10° S
SL-4 R/B 3.8 02:54:05 10° W 03:02:17 - S 02:55:57 15° WSW
CZ-4B R/B 2.2 02:55:44 20° SW 02:57:06 28° W 02:59:49 10° NW
Cosmos 1980 Rocket 3.4 02:53:57 10° NNW 02:59:21 46° ENE 03:04:44 10° SE
SL-8 Rocket 4.4 02:53:24 10° NNW 02:59:25 47° W 03:05:24 10° SSW
USA 215 3.4 02:53:13 10° ESE 02:59:45 81° NE 03:06:19 10° NW
Cosmos 1656 3.7 02:54:15 10° NNW 02:59:54 64° WSW 03:05:29 10° S
Cosmos 1544 Rocket 3.9 02:55:50 10° S 03:00:06 64° E 03:04:24 10° NNE
SL-08 R/B 4.5 02:57:52 10° NNW 03:04:00 74° W 03:10:11 10° S
CBERS 1 LM4 rocket 4.4 03:02:37 10° NNE 03:07:24 88° E 03:12:15 10° SSW
Cosmos 1674 4.0 03:05:19 10° N 03:09:01 44° ENE 03:12:42 10° SSE
Cosmos 1455 Rocket 3.0 03:04:50 10° S 03:09:12 84° W 03:13:35 10° N
BREEZE-M DEB (TANK) 3.7 02:59:24 10° WNW 03:10:35 71° SW 03:13:55 10° SE
H-2A R/B 3.3 03:06:09 10° NNE 03:10:36 56° E 03:15:02 10° S
Cosmos 2278 3.8 03:05:32 10° NNW 03:11:14 87° ENE 03:16:53 10° SSE
EXPRESS MD2 3.3 03:09:14 10° WNW 03:11:58 71° NNE 03:16:51 10° ESE
Nadezhda 3 Rocket 4.3 03:06:19 10° S 03:12:38 75° E 03:18:55 10° NNE
Cosmos 1707 3.5 03:09:37 10° NNW 03:13:04 32° W 03:16:30 10° SSW
ARIANE 5 R/B 3.5 03:11:35 10° N 03:16:06 32° WNW 03:20:35 10° SW
Meteor 1-28 Rocket 3.2 03:15:00 10° S 03:18:45 64° W 03:22:30 10° NNW
CZ-2D R/B 4.4 03:15:52 10° N 03:19:52 36° WNW 03:23:53 10° SW
CZ-2D R/B 4.2 03:18:12 10° NNW 03:20:43 13° NW 03:23:15 10° W
Spot 2 4.4 03:16:35 10° N 03:21:08 62° WNW 03:25:56 10° SSW
Cosmos 1892 Rocket 4.0 03:18:33 10° NNW 03:22:39 41° W 03:26:46 10° SSW
PSLV R/B 4.4 03:22:31 11° WSW 03:24:22 19° SSW 03:26:27 10° SSE
Cosmos 2298 Rocket 4.4 03:21:54 10° SW 03:27:02 50° WNW 03:32:13 10° NNE
Cosmos 1602 Rocket 4.2 03:23:23 10° N 03:27:48 62° E 03:32:14 10° SSE
Cosmos 1689 Rocket 4.0 03:30:41 10° SW 03:32:27 15° W 03:34:14 10° WNW
Cosmos 1626 Rocket 3.7 03:28:10 10° N 03:32:40 86° E 03:37:08 10° S
Cosmos 2082 Rocket 2.2 03:27:14 10° SSW 03:32:50 80° WNW 03:38:30 10° NNE
Cosmos 2150 Rocket 4.5 03:30:18 10° SW 03:35:16 46° WNW 03:40:15 10° N
SL-16 R/B 4.4 03:33:09 10° N 03:38:14 33° NE 03:43:17 10° ESE
ADEOS 3.7 03:36:08 10° N 03:41:20 66° WNW 03:46:29 10° SSW
